Weather History for Raton, NM

Change the Weather History Date:

Friday, November 9, 2012

  Actual Average (KTAD) Record (KTAD)
Temperature  
Mean Temperature 49 °F 44 °F  
Max Temperature 66 °F 59 °F 81 °F (1980)
Min Temperature 32 °F 28 °F -3 °F (1950)
Degree Days  
Heating Degree Days 16 21  
Month to date heating degree days 176  
Since 1 July heating degree days 677  
Cooling Degree Days 0 0  
Month to date cooling degree days 0  
Year to date cooling degree days 719  
Moisture  
Dew Point 26 °F    
Average Humidity 43    
Maximum Humidity 71    
Minimum Humidity 19    
Precipitation  
Precipitation 0.00 in 0.03 in 0.25 in (1998)
Month to date precipitation 0.26  
Year to date precipitation 12.86  
Sea Level Pressure  
Sea Level Pressure 29.72 in    
Wind  
Wind Speed 11 mph (WSW)    
Max Wind Speed 32 mph    
Max Gust Speed 40 mph    
Visibility 10 miles    
Events      
T = Trace of Precipitation, MM = Missing Value Source: NWS Daily Summary

Daily Weather History Graph

Daily Weather History Graph

Search for Another Location

Airport:

Trip Planner

Search our weather history database for the weather conditions in past years. The results will help you decide how hot, cold, wet, or windy it might be!

Date:

Astronomy

Nov. 09, 2012 Rise Set
Actual Time 6:30 AM MST 4:52 PM MST
Civil Twilight 6:03 AM MST 5:20 PM MST
Nautical Twilight 5:32 AM MST 5:51 PM MST
Astronomical Twilight 5:01 AM MST 6:21 PM MST
Moon 1:38 AM MST (11/9) 2:01 PM MST (11/9)
Length of Visible Light 11h 17m
Length of Day
10h 22m
Waning Crescent, 22% of the Moon is Illuminated
Nov 9
Waning Crescent
Nov 13
New
Nov 20
First Quarter
Nov 28
Full
Dec 6
Last Quarter

Hourly Weather History & Observations

Time (MST) Temp. Windchill Dew Point Humidity Pressure Visibility Wind Dir Wind Speed Gust Speed Precip Events Conditions
12:53 AM 37.9 °F - 21.0 °F 51% 29.75 in 10.0 mi North - - N/A   Clear
1:21 AM 39.2 °F - 21.2 °F 49% 29.92 in 10.0 mi North - - N/A   Clear
1:53 AM 41.0 °F - 21.9 °F 47% 29.73 in 10.0 mi Calm Calm - N/A   Clear
2:53 AM 36.0 °F 31.1 °F 21.0 °F 55% 29.73 in 10.0 mi NE 5.8 mph - N/A   Clear
3:53 AM 39.9 °F - 21.9 °F 49% 29.73 in 10.0 mi Calm Calm - N/A   Clear
4:53 AM 36.0 °F 29.6 °F 21.0 °F 55% 29.76 in 10.0 mi NNW 8.1 mph - N/A   Clear
5:53 AM 32.0 °F 24.8 °F 19.9 °F 61% 29.78 in 10.0 mi NNE 8.1 mph - N/A   Clear
6:53 AM 34.0 °F 28.8 °F 19.9 °F 56% 29.77 in 10.0 mi NE 5.8 mph - N/A   Clear
7:26 AM 51.8 °F - 30.2 °F 44% 29.86 in 10.0 mi SW 19.6 mph 26.5 mph N/A   Clear
7:53 AM 55.9 °F - 28.9 °F 36% 29.68 in 10.0 mi WSW 32.2 mph 40.3 mph N/A   Clear
8:53 AM 59.0 °F - 28.0 °F 31% 29.69 in 10.0 mi West 23.0 mph 32.2 mph N/A   Clear
9:53 AM 64.0 °F - 24.1 °F 22% 29.69 in 10.0 mi WSW 28.8 mph 35.7 mph N/A   Clear
10:53 AM 64.9 °F - 25.0 °F 22% 29.68 in 10.0 mi WSW 19.6 mph 34.5 mph N/A   Clear
11:32 AM 66.2 °F - 23.0 °F 19% 29.85 in 10.0 mi West 21.9 mph 32.2 mph N/A   Partly Cloudy
11:53 AM 66.9 °F - 24.1 °F 20% 29.67 in 10.0 mi West 20.7 mph - N/A   Clear
12:53 PM 66.0 °F - 24.1 °F 20% 29.64 in 10.0 mi SW 21.9 mph 34.5 mph N/A   Clear
1:53 PM 66.0 °F - 24.1 °F 20% 29.62 in 10.0 mi SW 25.3 mph 35.7 mph N/A   Clear
2:53 PM 66.0 °F - 27.0 °F 23% 29.64 in 10.0 mi SW 16.1 mph 25.3 mph N/A   Partly Cloudy
3:53 PM 62.1 °F - 30.0 °F 30% 29.65 in 10.0 mi SW 18.4 mph - N/A   Clear
4:53 PM 57.0 °F - 28.0 °F 33% 29.68 in 10.0 mi SW 16.1 mph - N/A   Clear
5:53 PM 52.0 °F - 28.9 °F 41% 29.73 in 10.0 mi SW 18.4 mph 24.2 mph N/A   Clear
6:53 PM 50.0 °F - 30.0 °F 46% 29.74 in 10.0 mi South 16.1 mph - N/A   Clear
7:53 PM 48.0 °F - 30.9 °F 52% 29.66 in 10.0 mi SSW 11.5 mph - N/A   Clear
8:53 PM 46.0 °F - 34.0 °F 63% 29.69 in 10.0 mi Calm Calm - N/A   Clear
9:53 PM 46.0 °F 43.9 °F 35.1 °F 66% 29.69 in 10.0 mi WSW 4.6 mph - N/A   Overcast
10:53 PM 44.1 °F 39.5 °F 35.1 °F 71% 29.67 in 10.0 mi South 8.1 mph - N/A   Scattered Clouds
11:53 PM 45.0 °F - 36.0 °F 71% 29.64 in 10.0 mi Calm Calm - N/A   Mostly Cloudy